Location: *
(37.6221°N, 14.4181°E)
Time: 04:20:30
(UTC+00:00)

Daily predictions for brighter satellites

Satellite Brightness Start Highest point End
(mag) Time Altitude Azimuth Time Altitude Azimuth Time Altitude Azimuth
USA 234 4.4 01:39:06 10° E 01:44:28 38° NE 01:44:28 38° NE
SL-16 R/B 4.5 02:16:17 15° N 02:16:17 15° N 02:17:14 10° N
COSMOS 2455 3.4 02:22:37 54° NE 02:22:37 54° NE 02:27:22 10° NNE
ADEOS 4.4 02:22:02 10° NNE 02:26:27 46° ENE 02:26:27 46° ENE
Cosmos 2219 Rocket 3.4 02:27:00 34° SE 02:28:06 38° ESE 02:33:13 10° NE
COSMOS 2428 3.5 02:36:07 39° SE 02:37:28 46° ESE 02:42:52 10° NE
BREEZE-M DEB (TANK) 3.9 02:43:09 42° N 02:43:09 42° N 02:45:33 10° NE
Cosmos 1709 Rocket 4.0 02:43:09 43° S 02:45:21 76° E 02:51:39 10° N
Cosmos 2322 Rocket 4.3 02:48:50 15° NNW 02:48:50 15° NNW 02:50:03 10° N
Cosmos 1842 4.4 02:54:53 41° E 02:54:53 41° E 02:58:32 10° NNE
USA 267 4.4 02:50:44 10° NNE 02:55:59 27° NNW 02:56:29 26° NNW
Cosmos 2360 Rocket 3.4 02:59:56 28° NNW 02:59:56 28° NNW 03:03:06 10° N
Aureole 1 Rocket 4.0 03:00:51 17° SSW 03:06:47 83° ESE 03:12:31 10° NNE
CZ-4B R/B 4.5 03:06:56 10° NNE 03:10:39 34° E 03:14:11 10° SSE
SWAS 4.5 03:11:21 70° N 03:11:46 79° ENE 03:16:04 10° SSE
COSMOS 2441 4.4 03:07:09 10° NNE 03:12:05 78° ESE 03:15:43 18° S
IDEFIX/ARIANE 42P 2.5 03:07:45 10° N 03:12:52 60° WNW 03:12:52 60° WNW
ERBS 3.5 03:17:13 36° SE 03:17:22 37° SE 03:20:31 10° ENE
MSX 3.7 03:12:16 10° NNE 03:18:00 85° WNW 03:23:44 10° SSW
Cosmos 1844 Rocket 2.6 03:20:51 28° NW 03:23:45 61° WSW 03:29:11 10° S
NOSS 3-4 (A) 4.3 03:18:33 10° S 03:24:14 47° ESE 03:30:08 10° NE
NOSS 3-4 (C) 4.3 03:18:38 10° S 03:24:19 47° ESE 03:30:14 10° NE
Meteor 1-22 Rocket 3.9 03:19:04 10° NNW 03:24:27 79° W 03:29:42 10° S
Meteor 1-21 4.2 03:21:33 10° S 03:27:07 82° E 03:32:44 10° N
USA 234 3.2 03:21:19 10° SSE 03:27:47 64° SW 03:31:51 24° WNW
Cosmos 2181 Rocket 3.9 03:21:46 10° N 03:28:09 83° W 03:34:24 10° S
NOSS 2-2 (D) 3.6 03:29:19 45° NNW 03:29:19 45° NNW 03:32:34 10° NNE
CZ-2C R/B 2.6 03:24:23 10° NNE 03:29:36 81° ESE 03:34:45 10° S
Cosmos 2333 Rocket 2.2 03:28:22 35° SW 03:30:40 61° WNW 03:36:18 10° NNE
Cosmos 2251 Rocket 4.2 03:37:18 33° WNW 03:37:28 33° WNW 03:42:19 10° N
PAYLOAD A 3.8 03:33:00 10° N 03:37:46 67° WNW 03:42:41 10° SSW
Cosmos 2278 Rocket 3.5 03:32:41 10° N 03:38:02 40° ENE 03:43:20 10° SE
Cosmos 1992 Rocket 3.8 03:33:52 10° NNW 03:39:04 72° WSW 03:44:13 10° S
Cosmos 1844 3.8 03:35:46 10° NNW 03:41:25 55° WSW 03:47:01 10° S
NOSS 0 Rocket 4.0 03:35:49 10° SSW 03:41:57 81° ESE 03:48:09 10° NNE
Cosmos 1953 4.5 03:38:53 10° NNE 03:42:26 29° ENE 03:45:56 10° SE
H-2A R/B 3.0 03:43:49 10° N 03:47:34 35° WNW 03:47:59 34° W
Cosmos 1758 3.8 03:43:42 10° N 03:47:40 63° E 03:51:38 10° SSE
Cosmos 614 Rocket 4.3 03:42:41 10° S 03:47:52 69° ESE 03:53:04 10° NNE
BREEZE-M DEB (TANK) 2.1 03:50:38 27° WNW 03:52:44 61° SW 03:55:07 10° SE
Cosmos 1025 Rocket 3.2 03:49:55 11° SSW 03:53:51 44° W 03:57:57 10° N
ATLAS 3B R/B 4.0 03:48:42 10° NNW 03:54:52 38° NE 04:01:10 10° ESE
CZ-4B R/B 3.8 03:51:04 10° N 03:54:57 62° WNW 03:58:59 10° SSW
Cosmos 1536 Rocket 4.2 03:59:20 18° SW 04:01:49 31° WNW 04:05:41 10° NNW
ATLAS 2AS CENTAUR R/B 3.1 03:56:44 10° SW 04:04:36 64° NW 04:12:38 10° NNE
BREEZE-M DEB (TANK) 4.2 04:05:30 10° NNW 04:07:18 18° NNE 04:09:09 10° ENE
ALOS 3.7 04:02:56 10° NNE 04:07:21 41° E 04:11:45 10° S
COSMOS 2455 4.2 04:05:49 17° WNW 04:07:51 20° NW 04:12:13 10° N
SKYMED 2 4.2 04:04:41 10° SSE 04:08:57 60° ENE 04:13:14 10° N
CENTAUR R/B 3.9 04:02:44 10° NNW 04:10:45 58° NE 04:19:18 10° SE
Cosmos 921 Rocket 2.9 04:07:12 10° NNW 04:11:30 72° WSW 04:15:41 10° S
GP-B 3.7 04:07:28 10° SSE 04:11:50 61° E 04:16:13 10° N
Cosmos 2219 Rocket 3.1 04:08:49 16° WSW 04:12:05 28° WNW 04:16:51 10° N
USA 238 DEB 3.9 04:05:35 10° NW 04:12:48 67° WSW 04:20:10 10° SSE
USA 238 3.9 04:05:42 10° NW 04:12:54 68° WSW 04:20:16 10° SSE
CZ-4B DEB 4.4 04:07:47 10° NNE 04:13:16 76° ESE 04:18:42 10° S
Meteor 1-4 Rocket 2.6 04:10:26 10° S 04:13:58 78° E 04:17:29 10° NNE
Cosmos 2237 Rocket 2.2 04:10:05 10° SSW 04:15:42 68° WNW 04:21:24 10° NNE
Cosmos 1190 Rocket 4.0 04:12:46 10° SSW 04:18:03 70° WNW 04:23:21 10° NNE
Cosmos 2154 Rocket 4.0 04:12:56 10° S 04:19:07 84° W 04:25:21 10° N
Cosmos 1892 Rocket 4.1 04:15:38 10° S 04:20:01 63° E 04:24:25 10° NNE
Meteor 1-31 Rocket 3.6 04:16:46 10° NNW 04:20:02 28° WNW 04:23:17 10° SW
COSMOS 2428 3.8 04:18:13 13° WSW 04:21:55 24° WNW 04:26:27 10° N
Cosmos 292 Rocket 3.7 04:17:54 10° NNW 04:22:40 69° WSW 04:27:26 10° S
Cosmos 407 Rocket 3.6 04:18:05 10° SSW 04:23:07 54° WNW 04:28:09 10° N
Cosmos 44 3.8 04:24:09 10° NNW 04:28:25 53° ENE 04:32:37 10° SE
Cosmos 2184 Rocket 4.4 04:23:47 10° SSW 04:29:34 41° WNW 04:35:26 10° N
Cosmos 1470 3.3 04:26:24 10° NNW 04:30:01 36° W 04:33:35 10° SSW
SeaSat 1 3.2 04:25:23 10° NE 04:30:15 57° ESE 04:35:04 10° SSW
Cosmos 1980 4.0 04:26:33 10° SW 04:31:58 46° WNW 04:37:24 10° N
In-Cosmos 22 4.2 04:28:30 10° S 04:33:47 85° E 04:39:11 10° N
Cosmos 1707 3.4 04:31:18 10° SW 04:34:51 33° WNW 04:38:26 10° NNW
Okean 1-7 Rocket 3.6 04:30:52 10° S 04:35:17 85° W 04:39:45 10° N
Cosmos 1484 Rocket 3.1 04:34:37 10° N 04:38:09 40° WNW 04:41:44 10° SW
Cosmos 2341 Rocket 4.2 04:32:07 10° S 04:38:23 81° E 04:44:38 10° N
CZ-4B R/B 3.2 04:33:40 10° NNE 04:39:00 85° ESE 04:44:17 10° SSW
Cosmos 1606 Rocket 3.5 04:34:51 10° NNW 04:39:08 66° W 04:43:24 10° S
Milstar 3 4.4 04:34:30 10° SW 04:40:10 29° SSE 04:46:47 10° ESE
NOSS 3-2 (A) 4.3 04:32:47 10° NW 04:40:23 55° WSW 04:48:37 10° S
Milstar 3 Cent rocket 4.0 04:42:48 10° SSW 04:46:16 19° SSE 04:49:42 10° ESE
Nadezhda 3 Rocket 4.1 04:40:00 10° NNW 04:46:17 64° W 04:52:31 10° S
